This is the latest recevied weather packets stored in our database for station/object W1ERB-13. If no packets are shown the sender has not sent any weather packets the latest 10 day(s).
| Time | Temp. | Humidity | Pressure | Rain* | Wind** | Luminosity | Snow |
|---|---|---|---|---|---|---|---|
| 1777608506 | 7.78° C | 74% | 1009.2 hPa | 0 mm | - | 0 W/m² | - |
| 1777608204 | 7.78° C | 74% | 1009.1 hPa | 0 mm | - | 0 W/m² | - |
| 1777607901 | 7.78° C | 76% | 1008.9 hPa | 0 mm | - | 0 W/m² | - |
| 1777607596 | 8.33° C | 75% | 1008.9 hPa | 0 mm | - | 0 W/m² | - |
| 1777607294 | 8.33° C | 75% | 1008.8 hPa | 0 mm | - | 0 W/m² | - |
| 1777606989 | 8.33° C | 76% | 1008.6 hPa | 0 mm | - | 0 W/m² | - |
| 1777606680 | 8.89° C | 76% | 1008.8 hPa | 0 mm | - | 0 W/m² | - |
| 1777606376 | 8.89° C | 73% | 1008.6 hPa | 0 mm | - | 0 W/m² | - |
| 1777606075 | 8.89° C | 75% | 1008.7 hPa | 0 mm | - | 0 W/m² | - |
| 1777605771 | 8.33° C | 77% | 1008.5 hPa | 0 mm | - | 0 W/m² | - |
| 1777605470 | 8.89° C | 77% | 1008.7 hPa | 0 mm | - | 0 W/m² | - |
| 1777605163 | 8.89° C | 74% | 1008.6 hPa | 0 mm | - | 0 W/m² | - |
| 1777604863 | 8.89° C | 74% | 1008.6 hPa | 0 mm | - | 0 W/m² | - |
| 1777604559 | 8.33° C | 83% | 1008.6 hPa | 0 mm | - | 0 W/m² | - |
| 1777604255 | 7.78° C | 85% | 1008.6 hPa | 0 mm | - | 0 W/m² | - |
| 1777603951 | 8.33° C | 88% | 1008.6 hPa | 0 mm | - | 0 W/m² | - |
| 1777603648 | 8.33° C | 85% | 1008.6 hPa | 0 mm | - | 0 W/m² | - |
| 1777603344 | 8.33° C | 86% | 1008.4 hPa | 0 mm | - | 0 W/m² | - |
| 1777603040 | 8.33° C | 88% | 1008.5 hPa | 0 mm | - | 0 W/m² | - |
| 1777602735 | 8.33° C | 88% | 1008.6 hPa | 0 mm | - | 0 W/m² | - |
| 1777602430 | 8.89° C | 88% | 1008.5 hPa | 0 mm | - | 0 W/m² | - |
| 1777602127 | 8.33° C | 89% | 1008.3 hPa | 0 mm | - | 0 W/m² | - |
| 1777601821 | 8.89° C | 90% | 1008.4 hPa | 0 mm | - | 0 W/m² | - |
| 1777601517 | 8.33° C | 92% | 1008.3 hPa | 0 mm | - | 0 W/m² | - |
| 1777601213 | 8.33° C | 96% | 1008.4 hPa | 0 mm | - | 0 W/m² | - |
* Rain latest hour (hover to see other rain measurements)
** Current wind speed in m/s (hover to see current wind gust speed)